Location: Home
(42.5358°N, 72.7383°W)
Time: 12:52:34
(UTC-05:00)

A-11 Canister half - Pass Details

Date: 01 December 2021
Orbit: 1516 x 1684 km, 47.2° (Epoch: 26 January)

Event Time Altitude Azimuth Distance (km) Brightness Sun altitude
Rises 13:28:59 0° 296° (WNW) 4,908 11.7 20.8°
Reaches altitude 10° 13:32:09 10° 293° (WNW) 3,932 11.3 20.6°
Maximum altitude 13:42:07 65° 215° (SW) 1,822 10.2 19.7°
Drops below altitude 10° 13:52:04 10° 137° (SE) 3,924 11.4 18.7°
Sets 13:55:14 0° 134° (SE) 4,898 11.8 18.4°
